Date,TemperatureHighF,TemperatureAvgF,TemperatureLowF,DewpointHighF,DewpointAvgF,DewpointLowF,HumidityHigh,HumidityAvg,HumidityLow,PressureMaxIn,PressureMinIn,WindSpeedMaxMPH,WindSpeedAvgMPH,GustSpeedMaxMPH,PrecipitationSumIn
2013-1-1,35.7,30.0,15.1,29.1,20.4,6.4,78,65,53,29.97,29.74,12,2,20,0.00
2013-1-2,30.7,17.8,4.6,19.6,9.5,0.8,83,67,48,30.18,29.93,10,1,17,0.00
2013-1-3,19.5,9.6,-2.0,11.3,2.3,-6.0,81,69,44,30.20,30.01,2,0,7,0.00
2013-1-4,39.1,26.1,12.1,27.9,19.5,8.9,85,74,56,30.01,29.84,6,0,17,0.00
2013-1-5,40.1,32.7,21.6,27.8,23.9,17.8,83,68,46,30.27,29.89,8,1,16,0.00
2013-1-6,41.2,30.5,22.9,31.3,25.9,19.0,89,80,62,30.22,29.93,4,0,6,0.03
2013-1-7,37.0,29.9,16.2,30.3,23.3,13.4,89,74,49,30.40,29.98,8,0,13,0.00
2013-1-8,46.5,28.4,14.7,31.2,22.7,11.8,89,78,50,30.38,30.27,6,0,10,0.00
2013-1-9,40.4,29.7,16.8,34.4,25.5,14.1,89,82,65,30.40,30.02,8,1,12,0.01
2013-1-10,44.0,37.0,24.9,31.0,26.9,22.0,86,65,48,30.55,30.10,10,2,29,0.00
2013-1-11,34.4,29.2,21.5,32.3,25.8,19.2,95,84,73,30.55,30.20,1,0,2,0.19
2013-1-12,41.4,36.5,33.8,39.2,34.7,31.8,97,90,89,30.21,30.13,2,0,2,0.02
2013-1-13,45.2,40.0,35.2,44.1,38.8,33.9,93,92,92,30.16,29.99,5,0,11,0.00
2013-1-14,48.9,42.3,35.7,47.2,37.3,27.9,93,80,52,30.29,29.85,17,1,18,0.04
2013-1-15,39.8,34.4,27.4,29.9,27.3,24.8,88,73,54,30.35,30.24,5,0,8,0.00
2013-1-16,34.7,33.0,30.7,32.6,30.4,27.5,90,87,79,30.25,29.83,2,0,6,0.45
2013-1-17,39.9,32.1,24.3,34.9,25.8,12.9,90,75,49,30.12,29.85,8,1,16,0.00
2013-1-18,28.2,21.2,15.4,16.3,7.5,0.0,75,53,36,30.44,30.06,16,1,16,0.00
2013-1-19,45.8,34.8,23.5,33.3,22.5,11.4,74,58,45,30.37,29.86,12,3,16,0.00
2013-1-20,50.6,38.8,27.5,34.4,26.9,14.0,72,60,37,29.98,29.57,10,3,19,0.00
2013-1-21,28.6,23.5,16.7,21.0,14.8,11.2,85,67,48,30.10,29.80,7,0,13,0.03
2013-1-22,23.0,18.1,11.9,19.5,8.1,1.3,86,63,39,30.11,29.77,7,1,18,0.00
2013-1-23,16.0,10.2,4.1,2.7,-0.5,-4.0,73,58,43,30.19,30.10,8,1,26,0.00
2013-1-24,19.7,9.9,-1.0,1.5,-2.2,-6.0,79,55,35,30.30,30.14,13,1,18,0.00
2013-1-25,22.6,15.5,5.0,13.8,1.7,-3.0,82,52,33,30.37,30.08,7,0,10,0.00
2013-1-26,24.9,15.9,8.2,12.5,6.7,3.0,83,65,43,30.30,30.04,9,1,11,0.04
2013-1-27,30.8,17.9,6.3,9.2,6.3,1.7,80,59,31,30.49,30.29,8,0,12,0.00
2013-1-28,28.2,21.8,11.7,24.8,16.3,6.3,87,77,57,30.49,30.01,2,0,4,0.13
2013-1-29,34.4,30.4,25.7,31.5,27.1,23.2,90,85,76,30.19,30.02,3,0,5,0.23
2013-1-30,55.3,42.8,33.3,53.8,41.4,31.5,93,92,90,30.13,29.38,14,2,17,0.11
2013-1-31,60.3,45.0,30.0,57.8,37.4,16.8,92,73,47,29.62,28.95,17,4,23,1.17
2013-2-1,32.9,27.8,22.1,18.4,14.0,9.1,67,53,40,30.12,29.62,13,2,21,0.00
2013-2-2,30.7,24.0,14.3,16.9,10.9,6.5,71,55,39,30.25,30.04,11,1,16,0.00
2013-2-3,29.9,23.6,15.2,19.3,17.2,12.2,87,74,56,30.06,29.76,3,0,6,0.01
2013-2-4,30.8,22.4,16.4,17.3,14.7,11.0,87,70,47,29.96,29.76,9,1,16,0.00
2013-2-5,31.8,25.8,20.5,24.6,16.8,12.5,86,66,50,30.02,29.91,3,0,5,0.00
2013-2-6,38.0,28.8,19.3,27.1,19.4,8.8,87,66,41,30.33,29.91,11,1,17,0.00
2013-2-7,33.7,24.0,12.3,15.5,10.3,6.5,82,54,33,30.54,30.33,8,0,8,0.00
2013-2-8,31.1,27.5,20.8,27.9,20.9,8.8,88,75,42,30.45,29.73,15,2,23,0.79
2013-2-9,25.6,20.9,9.4,21.2,14.9,3.3,88,76,49,30.28,29.73,21,5,31,0.39
2013-2-10,33.7,13.0,-5.0,21.4,6.1,-10.0,81,72,49,30.47,30.28,2,0,5,0.00
2013-2-11,33.8,26.9,11.5,32.4,24.2,7.6,92,87,79,30.35,29.65,2,0,6,0.24
2013-2-12,41.9,36.3,32.6,33.5,30.4,25.5,96,77,63,29.91,29.67,10,2,21,0.00
2013-2-13,42.8,35.3,31.4,27.8,26.4,24.3,80,68,46,29.88,29.72,5,0,9,0.00
2013-2-14,45.6,32.8,22.1,27.3,24.1,19.2,86,69,41,29.98,29.72,4,0,6,0.00
2013-2-15,50.6,38.0,27.3,35.3,31.0,23.1,89,74,52,29.99,29.88,7,1,13,0.00
2013-2-16,39.7,34.4,29.3,31.7,25.4,11.6,90,68,43,29.98,29.76,18,1,18,0.08
2013-2-17,29.2,23.4,15.4,13.3,7.7,3.7,57,48,38,29.82,29.54,18,4,37,0.00
2013-2-18,32.2,19.8,11.3,11.3,5.6,1.5,70,52,28,30.18,29.83,14,1,23,0.00
2013-2-19,45.9,30.5,15.9,37.9,23.7,8.4,91,73,52,30.19,29.58,8,0,16,0.13
2013-2-20,35.4,30.6,25.6,33.8,21.0,14.4,91,65,47,29.85,29.58,11,3,19,0.00
2013-2-21,30.6,26.6,22.4,19.3,16.2,13.9,75,62,50,30.29,29.83,9,2,20,0.00
2013-2-22,41.3,30.8,17.6,27.9,22.1,14.3,85,68,47,30.40,30.28,7,0,9,0.00
2013-2-23,36.9,34.9,32.5,34.5,30.4,26.0,90,81,69,30.31,29.90,6,0,9,0.00
2013-2-24,39.1,35.7,34.0,35.5,33.4,32.1,91,89,83,29.92,29.74,9,1,13,0.04
2013-2-25,41.7,35.1,28.9,32.5,30.4,26.6,90,80,64,30.25,29.92,5,0,11,0.00
2013-2-26,43.5,37.0,31.5,34.0,30.4,28.2,88,75,54,30.33,30.13,8,0,11,0.00
2013-2-27,42.3,38.2,34.4,40.3,35.1,29.9,91,85,71,30.12,29.61,11,2,18,0.73
2013-2-28,44.7,36.7,33.2,37.7,33.7,31.2,90,86,73,29.64,29.55,5,0,7,0.00
2013-3-1,43.9,37.7,31.6,34.5,30.6,27.7,90,74,54,29.72,29.56,8,0,12,0.00
2013-3-2,41.6,36.5,33.5,30.3,28.3,24.6,81,69,56,29.72,29.65,7,1,12,0.00
2013-3-3,37.5,33.2,30.2,30.3,25.8,23.0,81,71,65,29.69,29.61,16,1,16,0.00
2013-3-4,39.3,32.6,25.8,26.5,23.4,20.3,79,66,53,29.82,29.67,13,2,17,0.00
2013-3-5,46.7,36.5,26.7,31.1,26.9,21.7,80,66,49,30.08,29.83,8,1,12,0.00
2013-3-6,40.5,37.4,33.6,35.2,31.7,28.5,83,77,69,30.10,30.03,13,3,22,0.01
2013-3-7,38.8,35.0,32.4,32.8,30.3,27.6,89,80,65,30.08,30.03,11,3,22,0.09
2013-3-8,41.5,36.2,32.0,31.2,29.0,26.0,89,73,55,30.20,29.98,15,2,20,0.09
2013-3-9,58.0,40.2,28.9,27.7,24.4,18.1,80,55,19,30.34,30.19,11,1,15,0.00
2013-3-10,54.5,39.0,23.4,34.6,28.9,20.9,89,67,39,30.42,30.26,7,1,10,0.00
2013-3-11,51.4,43.8,37.1,43.0,37.0,32.4,83,75,62,30.31,30.11,6,1,13,0.00
2013-3-12,54.3,50.0,42.8,52.5,47.3,39.2,91,88,83,30.11,29.68,9,2,17,1.10
2013-3-13,49.9,40.4,31.3,38.8,30.7,25.4,90,67,40,29.83,29.75,9,1,14,0.00
2013-3-14,35.8,30.4,25.8,29.1,19.1,12.9,78,60,46,29.88,29.79,12,2,18,0.00
2013-3-15,43.9,31.9,23.8,30.9,19.9,9.6,86,60,35,29.90,29.66,7,1,12,0.00
2013-3-16,39.7,32.7,24.4,26.1,19.2,15.3,77,55,35,29.89,29.72,7,0,10,0.00
2013-3-17,38.2,30.4,23.0,19.9,14.9,9.4,76,52,29,30.32,29.89,12,1,23,0.00
2013-3-18,40.3,29.5,16.2,28.1,11.5,6.2,89,46,23,30.47,30.18,9,0,10,0.01
2013-3-19,36.9,32.8,29.8,33.5,30.4,26.7,96,88,82,30.18,29.65,5,0,10,0.90
2013-3-20,38.6,30.8,23.6,30.8,23.1,19.5,90,71,52,29.82,29.73,8,1,14,0.00
2013-3-21,41.1,29.5,19.3,24.7,18.5,15.3,88,64,33,29.82,29.60,5,0,9,0.00
2013-3-22,39.2,30.0,17.7,27.2,20.9,14.2,84,67,50,29.80,29.66,17,1,18,0.00
2013-3-23,41.3,35.3,28.1,26.8,24.1,21.6,79,61,46,29.84,29.72,13,2,26,0.00
2013-3-24,46.8,36.9,26.9,28.5,25.4,22.4,82,61,42,29.87,29.73,10,1,17,0.00
2013-3-25,46.1,37.8,29.3,30.7,27.0,24.5,81,63,45,29.77,29.51,16,2,23,0.00
2013-3-26,47.8,38.4,27.9,32.7,28.5,23.0,81,66,39,29.82,29.58,7,0,14,0.00
2013-3-27,54.4,38.5,22.2,34.2,27.8,19.7,88,65,35,29.90,29.78,12,1,21,0.00
2013-3-28,52.9,42.2,33.4,37.7,33.6,29.0,88,70,46,30.05,29.90,7,1,11,0.03
2013-3-29,56.4,44.1,30.1,37.4,32.7,27.7,90,64,38,30.08,30.00,9,1,12,0.00
2013-3-30,56.9,43.6,29.0,34.2,28.5,23.1,87,57,24,30.12,30.02,9,1,16,0.00
2013-3-31,58.4,41.6,25.3,41.2,30.4,22.2,88,65,30,30.12,29.71,12,1,18,0.09
2013-4-1,61.6,44.3,33.6,47.1,36.1,18.4,92,71,44,29.84,29.52,13,2,19,0.40
2013-4-2,42.4,33.6,25.8,25.0,20.7,17.0,78,57,37,29.99,29.84,12,2,25,0.00
2013-4-3,45.9,35.7,27.6,24.6,19.9,17.2,68,51,32,30.22,29.98,14,3,21,0.00
2013-4-4,57.7,40.7,24.4,28.9,22.4,18.4,78,49,22,30.34,30.04,8,1,13,0.00
2013-4-5,60.9,45.7,36.4,32.4,29.4,25.9,79,53,25,30.04,29.69,10,2,18,0.00
2013-4-6,48.5,38.1,28.8,30.1,17.3,11.7,74,42,21,30.31,29.92,11,2,21,0.00
2013-4-7,57.7,41.8,25.4,42.0,28.9,16.0,80,59,37,30.31,29.97,11,2,20,0.00
2013-4-8,65.9,50.8,35.6,42.5,39.3,33.5,91,65,33,30.08,29.97,7,1,11,0.00
2013-4-9,68.9,57.2,45.5,53.7,45.8,40.8,91,65,40,30.01,29.87,10,1,21,0.08
2013-4-10,65.2,55.5,46.2,55.0,49.4,44.1,92,78,56,29.99,29.82,4,0,6,0.32
2013-4-11,53.4,47.8,38.4,51.7,39.8,30.0,91,72,43,30.15,29.84,11,2,18,0.12
2013-4-12,40.0,37.9,36.1,36.7,35.5,33.9,90,88,82,30.15,29.81,9,1,14,0.61
2013-4-13,53.7,44.0,35.9,41.8,37.4,33.8,90,76,52,29.95,29.79,9,1,12,0.12
2013-4-14,55.4,43.9,32.0,40.4,34.0,27.6,91,68,41,30.24,29.92,10,1,17,0.00
2013-4-15,59.9,44.8,28.1,38.8,32.1,25.5,89,61,36,30.39,30.24,8,1,9,0.00
2013-4-16,67.6,52.5,38.5,51.9,43.8,33.1,81,70,47,30.38,30.07,13,2,19,0.06
2013-4-17,67.2,55.5,41.6,52.6,39.9,31.2,90,56,28,30.33,30.08,11,1,14,0.02
2013-4-18,63.2,50.3,33.0,46.0,35.8,29.8,86,58,33,30.42,30.12,15,2,15,0.00
2013-4-19,73.0,62.0,52.1,63.1,56.9,45.9,92,81,65,30.13,29.62,19,3,21,0.30
2013-4-20,63.4,50.6,39.3,61.3,39.7,25.3,90,66,36,30.28,29.62,10,2,17,0.59
2013-4-21,54.0,41.7,30.3,29.0,24.4,19.9,73,49,25,30.66,30.28,11,1,18,0.00
2013-4-22,56.9,43.2,29.3,33.0,28.7,25.2,83,57,30,30.73,30.57,12,2,22,0.00
2013-4-23,44.9,41.5,36.1,38.5,35.0,29.7,82,75,67,30.58,30.14,11,1,14,0.00
2013-4-24,75.1,56.0,42.2,51.4,44.6,38.2,85,66,35,30.13,29.77,10,2,17,0.00
2013-4-25,61.2,51.2,37.3,50.1,37.2,26.8,89,59,27,30.28,29.82,8,2,15,0.04
2013-4-26,67.5,49.3,30.5,41.6,33.9,27.6,88,57,27,30.41,30.28,5,0,9,0.00
2013-4-27,67.3,52.2,33.3,42.8,37.3,30.9,89,58,28,30.42,30.25,7,0,10,0.00
2013-4-28,73.6,56.5,37.5,46.8,39.5,32.4,89,54,26,30.34,30.17,7,1,12,0.02
2013-4-29,66.8,56.3,47.5,49.0,38.7,27.0,75,51,28,30.26,30.19,8,1,11,0.00
2013-4-30,73.8,60.0,49.3,43.1,36.9,28.0,72,42,22,30.34,30.24,6,0,12,0.00
2013-5-1,75.3,57.8,35.7,46.2,37.9,30.8,82,49,23,30.47,30.34,8,1,12,0.00
2013-5-2,82.0,60.4,39.8,50.1,42.3,37.0,89,54,24,30.46,30.26,16,1,23,0.00
2013-5-3,68.9,56.5,41.8,47.9,41.5,35.8,81,55,39,30.52,30.34,11,1,15,0.00
2013-5-4,72.5,56.2,39.1,50.7,40.3,27.3,92,58,24,30.38,30.22,12,1,16,0.00
2013-5-5,71.7,52.9,33.4,45.0,37.7,30.7,89,58,23,30.33,30.18,9,1,12,0.00
2013-5-6,73.7,55.2,38.3,50.6,43.3,36.1,90,66,28,30.29,30.10,7,0,9,0.00
2013-5-7,79.9,62.8,43.1,58.0,50.8,41.2,92,66,31,30.18,30.05,6,0,13,0.00
2013-5-8,74.4,62.0,52.0,61.8,57.3,50.1,92,83,56,30.17,30.02,16,1,19,0.55
2013-5-9,70.5,61.7,56.4,60.1,57.8,54.9,93,85,63,30.02,29.86,8,0,10,0.17
2013-5-10,79.6,64.8,52.9,63.3,56.5,51.5,93,74,46,29.98,29.88,4,0,10,0.00
2013-5-11,68.7,63.1,59.0,63.6,59.6,55.3,93,86,70,29.89,29.67,9,1,16,0.27
2013-5-12,71.2,58.3,43.8,60.2,49.8,34.6,92,72,44,29.85,29.60,7,0,12,0.02
2013-5-13,57.6,47.7,38.5,37.6,34.3,30.4,82,58,37,30.07,29.85,8,1,15,0.00
2013-5-14,59.0,47.9,36.6,40.5,35.2,32.0,87,61,35,30.08,30.00,9,0,12,0.00
2013-5-15,62.1,47.1,30.6,54.0,41.5,28.5,91,80,47,30.07,29.67,8,0,18,0.15
2013-5-16,81.6,63.3,44.5,55.6,47.8,42.6,93,60,27,29.80,29.65,11,1,20,0.00
2013-5-17,71.6,58.1,44.0,48.8,42.6,36.2,89,56,30,30.22,29.80,11,1,15,0.00
2013-5-18,73.7,57.9,40.2,51.5,45.2,38.0,94,63,32,30.32,30.22,7,0,11,0.00
2013-5-19,65.8,56.3,46.6,55.9,51.7,44.5,92,82,65,30.34,30.19,6,0,7,0.06
2013-5-20,82.4,66.8,56.2,68.4,61.0,54.4,93,81,55,30.19,29.92,4,0,7,0.08
2013-5-21,89.5,68.7,55.2,73.5,63.1,52.5,93,81,53,30.01,29.76,12,1,19,0.02
2013-5-22,77.5,65.0,54.2,70.4,61.6,52.6,93,86,73,30.03,29.82,11,0,13,1.45
2013-5-23,72.6,67.9,65.3,70.3,66.0,63.8,93,91,86,29.87,29.75,6,1,16,1.59
2013-5-24,66.3,59.9,46.8,64.9,56.5,44.8,93,86,71,29.90,29.63,8,1,15,0.46
2013-5-25,47.9,45.9,42.3,45.9,43.6,40.1,91,89,86,29.90,29.80,9,1,16,0.96
2013-5-26,55.8,48.6,40.1,48.4,42.5,37.9,92,78,60,30.13,29.80,14,1,16,0.05
2013-5-27,73.2,54.6,37.3,50.7,43.4,35.7,93,67,32,30.18,30.08,7,0,15,0.00
2013-5-28,73.3,58.1,39.5,56.1,48.2,37.6,92,70,36,30.24,30.14,5,0,9,0.00
2013-5-29,74.3,63.9,58.1,68.3,61.1,55.9,92,88,74,30.16,29.95,5,0,16,1.10
2013-5-30,86.8,73.1,60.7,76.0,67.9,59.2,93,82,58,30.10,30.01,4,0,9,0.00
2013-5-31,92.1,75.8,62.1,75.5,67.7,60.6,93,75,43,30.11,29.93,4,0,7,0.00
2013-6-1,91.4,77.3,63.1,75.9,67.8,61.1,92,71,44,29.97,29.83,8,0,12,0.01
2013-6-2,86.8,74.4,66.6,73.8,68.3,64.9,92,79,58,29.88,29.71,8,1,15,0.38
2013-6-3,77.2,67.7,51.8,69.1,62.9,46.7,93,83,61,29.88,29.78,4,0,9,0.65
2013-6-4,72.8,59.0,45.9,56.0,48.2,43.0,88,67,43,30.10,29.88,6,0,14,0.00
2013-6-5,74.4,60.7,45.8,58.4,50.8,44.1,92,70,43,30.20,30.08,5,0,11,0.00
2013-6-6,71.8,61.5,50.5,57.6,53.4,48.0,91,73,48,30.18,30.08,9,0,9,0.13
2013-6-7,57.8,55.9,53.3,55.7,54.2,51.9,92,91,89,30.09,29.79,4,0,7,2.08
2013-6-8,76.6,63.0,52.5,66.0,58.1,51.1,93,82,62,30.03,29.67,6,0,14,0.84
2013-6-9,80.4,65.3,51.2,63.4,56.9,49.8,93,74,44,30.17,30.03,6,0,12,0.00
2013-6-10,66.1,60.1,51.7,63.5,57.8,49.9,93,89,80,30.19,29.95,4,0,10,1.22
2013-6-11,66.5,60.7,57.6,62.3,58.6,56.1,93,90,80,29.95,29.57,3,0,6,0.94
2013-6-12,70.8,62.7,53.3,58.4,55.5,51.0,95,76,54,29.84,29.59,9,1,24,0.00
2013-6-13,58.7,54.3,48.2,57.2,52.6,46.5,92,91,89,29.83,29.67,7,0,9,1.42
2013-6-14,76.4,60.1,51.4,62.1,54.0,49.5,92,80,36,29.82,29.65,6,0,11,0.55
2013-6-15,79.3,63.1,48.0,57.2,51.9,46.2,93,68,33,29.96,29.82,6,0,14,0.00
2013-6-16,72.6,62.7,47.5,62.8,56.0,45.8,95,77,61,29.96,29.70,4,0,11,0.00
2013-6-17,85.0,67.7,55.7,68.8,61.1,53.9,92,79,44,29.90,29.76,9,0,24,0.50
2013-6-18,72.3,62.1,57.3,66.8,60.0,55.8,95,90,77,29.94,29.88,6,0,11,0.21
2013-6-19,76.2,63.0,50.5,57.2,52.5,47.0,92,69,37,30.16,29.91,9,0,11,0.01
2013-6-20,80.4,62.9,45.0,60.4,52.5,43.0,92,69,36,30.28,30.16,4,0,10,0.01
2013-6-21,84.5,71.3,55.5,70.4,61.8,53.2,91,70,50,30.26,30.17,4,0,6,0.00
2013-6-22,84.8,72.4,59.6,68.3,62.0,56.6,87,68,45,30.22,30.08,7,0,10,0.00
2013-6-23,89.7,76.2,63.6,76.1,66.7,58.3,82,70,55,30.15,29.98,6,0,11,0.00
2013-6-24,91.9,76.9,66.8,78.2,70.3,65.3,92,79,54,30.03,29.88,6,0,14,0.10
2013-6-25,90.2,75.2,63.4,77.2,69.1,61.9,93,80,53,29.96,29.72,4,0,10,0.18
2013-6-26,83.4,73.7,67.3,73.8,69.6,65.8,93,85,66,29.82,29.73,5,0,10,0.02
2013-6-27,79.8,72.0,64.8,72.3,68.3,63.3,93,86,73,29.82,29.68,9,1,14,0.01
2013-6-28,82.7,72.8,66.5,73.9,69.4,64.5,93,87,70,29.67,29.44,13,2,23,2.26
2013-6-29,84.3,76.9,70.4,73.3,70.2,67.8,93,78,60,29.70,29.48,5,0,11,0.01
2013-6-30,85.7,75.6,69.0,74.9,70.6,67.4,92,82,63,29.91,29.69,4,0,10,0.00
2013-7-1,75.8,73.9,71.4,73.8,71.7,69.5,92,90,85,30.04,29.91,3,0,10,0.63
2013-7-2,82.3,76.5,72.2,75.2,72.5,70.0,91,85,75,30.15,30.04,3,0,11,0.00
2013-7-3,88.4,78.7,72.5,77.3,72.8,70.2,90,80,58,30.19,30.12,6,0,11,0.01
2013-7-4,90.5,80.5,71.5,78.1,73.7,69.9,93,78,56,30.20,30.08,5,0,10,0.00
2013-7-5,92.1,81.6,72.3,78.2,74.1,70.4,92,76,54,30.16,30.02,7,0,7,0.00
2013-7-6,89.0,79.4,72.0,76.4,73.4,69.8,93,80,59,30.08,29.98,5,0,8,0.00
2013-7-7,90.3,75.9,68.1,79.0,71.7,66.6,93,85,63,30.03,29.90,3,0,12,0.08
2013-7-8,87.9,76.8,70.1,76.7,72.0,68.9,94,83,58,30.02,29.90,4,0,9,0.05
2013-7-9,80.5,74.3,70.5,73.7,70.7,68.6,92,86,74,30.08,30.00,5,0,10,0.01
2013-7-10,84.4,75.5,71.4,77.2,72.4,68.7,92,87,73,30.02,29.77,5,0,11,0.17
2013-7-11,83.1,74.8,67.9,74.1,70.7,66.1,94,85,60,29.94,29.75,3,0,6,0.02
2013-7-12,81.7,72.2,64.8,67.1,63.3,58.7,91,72,55,30.18,29.94,9,1,14,0.00
2013-7-13,76.9,70.3,64.7,71.8,65.8,59.0,92,83,72,30.29,30.18,3,0,5,0.08
2013-7-14,90.6,78.8,70.6,77.3,72.8,69.0,93,80,57,30.31,30.18,5,0,8,0.00
2013-7-15,92.6,79.2,70.0,77.1,72.4,68.4,93,78,51,30.21,30.10,10,0,10,0.00
2013-7-16,93.2,79.4,67.2,73.6,69.9,65.7,93,73,42,30.17,30.10,5,0,10,0.00
2013-7-17,92.7,79.2,67.1,78.4,71.9,65.6,93,77,53,30.19,30.00,4,0,6,0.00
2013-7-18,93.7,81.4,72.3,79.9,74.4,70.7,92,78,52,30.01,29.91,2,0,6,0.00
2013-7-19,94.0,82.6,71.3,79.1,74.7,69.7,93,75,54,29.93,29.71,5,0,9,0.00
2013-7-20,88.8,79.2,67.6,78.3,72.5,61.9,90,78,59,29.83,29.66,4,0,11,0.00
2013-7-21,85.2,73.3,62.7,71.2,66.0,60.6,91,76,50,29.96,29.83,3,0,5,0.00
2013-7-22,84.8,72.8,64.2,74.0,68.1,62.5,92,83,62,29.99,29.83,5,0,7,0.90
2013-7-23,82.0,73.3,69.3,76.8,71.0,68.1,93,90,78,29.82,29.53,7,0,9,2.20
2013-7-24,81.7,73.6,64.1,71.7,65.7,54.4,93,75,53,29.98,29.58,7,0,14,0.00
2013-7-25,69.4,62.7,57.3,61.5,55.0,48.5,90,73,60,30.08,29.98,7,0,12,0.01
2013-7-26,71.4,64.7,59.0,66.4,61.8,57.2,93,88,72,30.06,29.98,2,0,7,0.39
2013-7-27,82.5,68.0,55.9,68.9,62.2,54.4,93,80,54,30.06,29.96,4,0,7,0.00
2013-7-28,80.7,70.9,62.6,70.6,65.9,60.6,92,82,60,30.00,29.93,3,0,5,0.00
2013-7-29,85.8,73.6,64.8,70.7,66.6,61.1,91,77,50,30.06,29.94,8,0,9,0.00
2013-7-30,80.6,68.6,57.2,65.1,60.5,55.4,92,74,47,30.12,30.04,4,0,10,0.00
2013-7-31,82.2,68.3,56.2,67.5,60.8,54.4,92,76,45,30.15,30.02,1,0,5,0.00
2013-8-1,77.3,65.9,59.0,69.1,63.0,57.2,93,88,70,30.04,29.85,4,0,9,0.31
2013-8-2,82.2,70.8,64.7,67.7,65.0,62.1,93,80,52,29.87,29.79,4,0,11,0.15
2013-8-3,80.9,68.1,57.8,67.4,62.4,55.0,93,80,56,29.87,29.78,4,0,8,0.00
2013-8-4,79.2,64.3,54.3,63.1,57.0,52.6,93,76,46,29.92,29.79,6,0,12,0.03
2013-8-5,76.5,62.0,50.2,57.9,52.3,48.4,92,71,40,30.05,29.92,12,0,16,0.00
2013-8-6,79.5,63.3,47.8,61.8,54.4,46.1,92,73,41,30.14,30.05,4,0,9,0.00
2013-8-7,79.3,68.0,57.2,63.9,60.2,55.4,92,75,48,30.18,30.08,4,0,11,0.00
2013-8-8,81.1,73.8,67.9,72.7,68.7,62.9,91,82,72,30.08,29.98,5,0,11,0.00
2013-8-9,76.1,73.2,69.7,74.6,71.4,68.5,93,91,85,30.00,29.75,5,0,14,2.96
2013-8-10,82.0,69.5,55.8,68.3,61.2,48.8,94,75,41,30.03,29.81,10,0,14,0.00
2013-8-11,79.2,64.1,50.2,63.7,56.7,48.5,92,76,47,30.10,29.99,3,0,7,0.00
2013-8-12,81.6,67.7,57.2,67.1,60.9,55.6,93,78,48,30.03,29.90,2,0,6,0.00
2013-8-13,72.9,68.0,63.4,69.8,65.7,61.4,92,90,81,29.92,29.67,4,0,7,0.31
2013-8-14,75.1,63.1,53.0,64.8,56.3,51.4,93,77,51,29.99,29.69,11,0,19,0.00
2013-8-15,76.6,61.0,48.2,60.7,53.9,46.5,93,77,46,30.13,29.99,6,0,11,0.00
2013-8-16,78.4,62.5,50.1,63.2,55.8,48.4,92,78,47,30.20,30.12,2,0,5,0.00
2013-8-17,81.8,64.7,51.5,65.4,58.0,49.8,92,78,48,30.29,30.20,3,0,5,0.00
2013-8-18,76.7,65.0,55.9,68.5,61.2,54.1,93,85,62,30.28,30.09,3,0,3,0.00
2013-8-19,79.0,67.7,57.8,69.3,62.3,56.3,93,81,56,30.09,29.97,4,0,8,0.00
2013-8-20,84.6,68.5,56.1,69.0,62.2,54.6,93,79,47,30.11,30.00,3,0,7,0.00
2013-8-21,85.9,70.1,56.9,71.5,64.2,55.4,95,80,52,30.16,30.02,3,0,7,0.00
2013-8-22,83.8,72.4,60.4,74.5,67.5,58.9,93,83,67,30.04,29.82,8,0,10,0.07
2013-8-23,80.7,70.0,58.1,69.0,61.4,54.4,93,74,44,30.14,29.84,11,1,16,0.00
2013-8-24,78.7,62.2,51.2,62.1,54.9,49.3,91,76,44,30.34,30.14,4,0,6,0.00
2013-8-25,81.7,63.7,49.7,63.2,56.6,48.0,92,77,45,30.39,30.18,3,0,6,0.00
2013-8-26,79.5,69.5,62.5,69.5,64.4,59.0,91,81,66,30.19,29.88,2,0,7,0.30
2013-8-27,85.0,73.4,68.7,73.9,69.7,67.0,93,86,61,29.89,29.81,7,0,7,0.23
2013-8-28,86.2,73.6,67.1,75.2,69.1,65.6,93,84,61,29.92,29.81,5,0,8,0.00
2013-8-29,74.6,68.2,64.4,68.2,64.6,61.3,92,86,74,30.06,29.91,7,0,10,0.22
2013-8-30,84.5,70.1,60.4,72.6,65.4,58.6,92,83,60,30.03,29.81,3,0,6,0.00
2013-8-31,80.5,74.4,68.9,74.7,71.2,67.0,93,87,77,29.83,29.76,4,0,8,0.01
2013-9-1,80.0,73.2,68.3,75.2,70.9,67.0,93,90,81,29.87,29.80,5,0,6,0.83
2013-9-2,79.0,74.2,70.6,75.1,71.6,69.0,93,89,78,29.82,29.68,3,0,5,0.19
2013-9-3,73.7,68.1,59.0,70.2,64.9,56.9,93,87,70,29.84,29.69,2,0,7,0.00
2013-9-4,79.6,65.3,54.6,63.6,58.7,53.1,93,78,49,29.93,29.83,6,0,11,0.00
2013-9-5,71.6,60.8,49.2,62.7,54.2,47.2,93,78,46,30.16,29.87,5,0,10,0.02
2013-9-6,68.8,54.2,42.9,51.8,46.5,40.9,92,75,40,30.27,30.11,3,0,7,0.00
2013-9-7,76.9,59.6,45.0,61.9,53.2,43.5,93,78,48,30.11,29.86,0,0,0,0.02
2013-9-8,73.1,62.9,48.1,64.3,55.4,45.0,93,76,43,30.11,29.78,7,0,15,0.00
2013-9-9,68.3,54.6,39.8,56.3,47.6,37.9,92,76,50,30.25,30.11,4,0,7,0.00
2013-9-10,77.4,66.7,55.3,71.8,63.9,51.5,92,88,79,30.15,30.01,6,0,10,0.31
2013-9-11,91.7,77.0,66.7,81.3,72.6,65.5,94,84,64,30.07,29.92,6,0,17,0.07
2013-9-12,84.2,73.1,66.2,76.7,69.8,65.0,94,87,73,29.96,29.66,7,0,14,0.52
2013-9-13,75.1,66.6,58.0,67.0,63.1,54.7,93,86,70,29.80,29.59,7,0,14,0.06
2013-9-14,66.1,58.1,49.9,56.9,52.7,48.2,92,80,63,30.08,29.80,5,0,11,0.00
2013-9-15,69.7,55.1,42.4,58.1,50.1,40.7,93,82,55,30.19,30.05,2,0,5,0.00
2013-9-16,67.7,57.0,47.0,58.6,51.2,38.4,92,79,60,30.28,30.02,8,0,13,0.04
2013-9-17,64.0,49.0,37.9,50.5,42.1,35.8,91,76,47,30.45,30.28,5,0,10,0.00
2013-9-18,72.2,51.6,39.0,57.1,46.7,37.4,93,82,50,30.35,30.14,3,0,6,0.01
2013-9-19,76.5,56.5,43.5,61.3,51.3,42.1,93,82,46,30.17,30.04,3,0,4,0.00
2013-9-20,78.0,59.2,48.9,65.6,54.8,47.3,93,84,51,30.10,29.98,3,0,7,0.01
2013-9-21,73.8,64.0,54.8,66.0,60.5,53.0,93,86,69,30.02,29.66,7,0,13,0.07
2013-9-22,69.4,61.7,50.3,66.5,55.4,46.2,92,78,56,29.88,29.59,8,0,13,0.92
2013-9-23,64.0,50.6,40.4,49.4,44.5,38.5,97,78,52,30.04,29.87,6,0,9,0.00
2013-9-24,68.0,50.6,35.8,51.0,43.2,34.2,92,76,43,30.04,29.83,10,0,11,0.00
2013-9-25,71.2,53.9,40.9,59.2,48.8,39.3,93,82,52,29.98,29.86,5,0,8,0.00
2013-9-26,65.9,56.5,49.0,54.7,50.5,47.0,92,79,52,30.12,29.98,7,0,8,0.00
2013-9-27,64.1,55.4,47.0,55.2,51.2,45.3,92,84,65,30.28,30.12,5,0,8,0.00
2013-9-28,74.1,55.8,41.7,61.7,51.3,40.1,93,84,54,30.35,30.25,3,0,5,0.00
2013-9-29,72.0,55.0,47.0,59.6,51.3,45.3,93,86,51,30.26,30.08,2,0,5,0.00
2013-9-30,71.9,53.3,43.3,57.1,48.6,41.6,93,83,47,30.12,29.95,5,0,7,0.01
2013-10-1,76.4,56.4,45.4,64.2,52.6,44.0,93,85,56,30.00,29.86,3,0,5,0.00
2013-10-2,77.6,60.2,46.7,65.8,55.7,45.3,93,83,61,29.98,29.87,6,0,15,0.01
2013-10-3,75.1,57.7,45.0,59.7,51.4,43.3,95,79,44,30.11,29.98,3,0,5,0.00
2013-10-4,64.3,56.4,48.7,60.1,54.0,47.2,93,89,81,30.10,30.03,3,0,8,0.59
2013-10-5,69.3,62.4,58.4,63.4,59.5,56.7,93,88,70,30.11,30.04,2,0,5,0.20
2013-10-6,61.3,57.7,54.9,60.0,56.0,53.4,93,91,89,30.19,30.08,7,0,10,0.40
2013-10-7,74.8,61.1,55.0,69.4,59.2,53.7,94,91,77,30.11,29.74,11,0,17,0.83
2013-10-8,66.3,53.4,42.7,53.7,46.0,40.8,93,76,39,30.38,29.93,10,0,11,0.00
2013-10-9,65.1,48.1,37.4,49.6,43.0,35.8,93,81,49,30.48,30.36,5,0,7,0.00
2013-10-10,56.8,47.9,39.2,50.7,45.0,37.6,96,87,70,30.37,30.18,2,0,5,0.00
2013-10-11,72.0,53.2,41.5,56.6,47.7,40.0,93,81,44,30.18,30.07,7,0,10,0.00
2013-10-12,61.6,53.2,43.5,55.5,49.9,42.0,93,86,75,30.38,30.15,7,0,14,0.00
2013-10-13,61.7,55.2,47.6,51.3,49.4,44.9,89,78,64,30.44,30.36,7,0,10,0.01
2013-10-14,66.0,52.2,39.6,52.4,46.9,38.0,93,81,52,30.39,30.23,3,0,5,0.00
2013-10-15,69.8,58.6,50.0,57.3,52.6,48.0,91,79,56,30.27,30.13,5,0,8,0.00
2013-10-16,60.2,52.7,46.0,53.4,49.5,44.3,92,86,69,30.16,29.90,2,0,3,0.00
2013-10-17,74.2,61.3,51.5,60.3,55.8,50.1,92,81,55,29.91,29.68,5,0,8,0.05
2013-10-18,65.7,58.0,42.3,61.2,51.1,39.8,92,76,51,29.93,29.59,10,1,18,0.09
2013-10-19,65.6,50.0,36.1,49.1,42.3,34.5,92,75,44,29.98,29.73,7,0,14,0.01
2013-10-20,62.3,50.4,38.6,50.7,41.9,35.9,91,72,36,30.03,29.69,9,0,15,0.02
2013-10-21,67.2,50.6,35.2,47.0,40.8,33.3,92,69,40,30.13,29.97,6,0,9,0.00
2013-10-22,61.7,51.4,41.7,53.8,45.5,36.3,92,78,65,29.97,29.71,7,0,11,0.00
2013-10-23,51.8,42.2,32.9,39.6,35.8,31.1,91,77,51,29.81,29.59,2,0,5,0.00
2013-10-24,55.8,41.6,31.3,37.8,33.0,29.4,92,71,37,29.92,29.68,10,0,15,0.00
2013-10-25,49.4,39.0,29.5,37.3,31.1,26.9,91,72,44,30.17,29.92,12,1,19,0.00
2013-10-26,55.2,41.9,28.3,36.7,31.1,26.2,91,66,39,30.17,29.86,8,1,17,0.00
2013-10-27,55.0,46.4,34.7,39.1,35.2,30.9,83,63,45,30.08,29.80,8,1,15,0.00
2013-10-28,58.0,41.4,28.7,40.8,33.0,26.6,91,71,46,30.36,30.08,9,0,13,0.00
2013-10-29,49.6,35.3,27.7,31.2,26.9,24.8,88,71,38,30.47,30.36,7,0,7,0.00
2013-10-30,52.6,38.1,29.4,42.5,33.0,26.0,90,79,60,30.37,30.19,2,0,5,0.01
2013-10-31,59.0,42.5,32.0,57.6,41.1,30.2,93,92,90,30.25,29.77,9,1,16,0.34
2013-11-1,67.9,62.6,49.7,62.5,57.1,45.9,91,80,60,29.77,29.44,19,3,19,0.11
2013-11-2,66.5,50.8,39.3,48.7,44.0,37.4,92,77,44,29.76,29.58,5,0,8,0.00
2013-11-3,49.5,41.5,28.9,45.3,29.5,19.6,89,60,39,30.45,29.76,9,1,16,0.00
2013-11-4,42.5,31.2,23.4,23.8,20.9,19.1,83,65,38,30.71,30.46,8,0,13,0.00
2013-11-5,50.3,37.0,23.8,37.6,29.9,20.9,89,74,51,30.72,30.50,4,0,9,0.00
2013-11-6,60.9,50.6,39.6,49.4,43.0,36.4,91,73,54,30.50,30.03,11,1,15,0.00
2013-11-7,60.9,51.4,38.1,57.2,46.8,30.8,90,82,59,30.03,29.71,9,1,20,0.19
2013-11-8,48.7,36.9,28.5,37.6,29.7,25.5,89,73,50,30.12,29.85,11,1,23,0.00
2013-11-9,46.7,37.6,26.6,32.6,28.2,23.2,86,67,49,30.25,30.00,11,0,20,0.00
2013-11-10,50.9,44.6,39.2,41.4,36.9,30.7,89,72,60,29.99,29.76,15,1,22,0.02
2013-11-11,51.1,45.0,35.1,34.2,31.2,27.8,74,56,45,30.12,29.90,10,1,18,0.00
2013-11-12,48.1,35.6,25.4,38.0,24.2,17.1,75,60,49,30.23,29.89,10,2,22,0.01
2013-11-13,36.8,28.1,20.7,20.1,17.1,14.3,78,61,37,30.34,30.19,11,1,13,0.00
2013-11-14,51.9,37.2,28.9,31.1,24.2,19.1,75,57,36,30.19,30.06,7,0,15,0.00
2013-11-15,59.0,39.2,23.2,32.3,25.7,19.6,85,60,25,30.22,30.10,7,0,8,0.00
2013-11-16,59.0,42.6,33.7,36.9,32.6,29.7,89,67,35,30.31,30.20,2,0,5,0.00
2013-11-17,58.3,42.7,32.9,57.1,39.5,29.4,93,86,81,30.30,29.79,3,0,10,0.06
2013-11-18,63.4,56.2,41.4,59.6,48.0,33.5,93,72,45,29.80,29.52,9,1,18,0.41
2013-11-19,45.0,38.9,28.6,34.1,25.4,20.6,70,56,44,30.34,29.70,14,3,26,0.00
2013-11-20,40.4,28.8,20.4,20.8,18.7,16.4,82,65,36,30.65,30.34,8,1,16,0.00
2013-11-21,45.5,30.9,16.5,32.6,23.1,13.7,88,71,42,30.67,30.38,3,0,7,0.00
2013-11-22,44.8,41.3,37.8,42.9,38.7,32.1,92,88,73,30.38,29.84,1,0,3,0.15
2013-11-23,46.8,37.8,25.8,44.1,28.6,19.4,92,67,47,29.99,29.83,15,2,20,0.01
2013-11-24,27.4,23.3,18.9,20.1,9.1,2.9,76,52,33,30.27,29.87,15,4,29,0.00
2013-11-25,34.2,25.0,12.4,17.7,11.0,3.3,72,52,38,30.42,30.26,7,0,12,0.00
2013-11-26,38.9,34.5,29.3,32.0,24.4,16.5,90,65,48,30.33,30.01,5,0,9,0.16
2013-11-27,45.5,39.7,34.0,44.1,37.5,30.5,92,89,74,30.00,29.31,11,1,21,3.11
2013-11-28,36.6,28.2,20.2,31.9,18.7,12.6,81,65,42,30.46,29.54,15,2,26,0.00
2013-11-29,34.4,25.0,16.9,21.7,16.9,13.4,92,70,42,30.75,30.46,8,0,13,0.00
2013-11-30,32.3,22.3,11.9,22.0,14.9,8.7,86,71,47,30.82,30.43,4,0,5,0.00
2013-12-1,38.3,32.9,28.7,32.0,27.6,21.2,87,78,69,30.42,30.03,0,0,3,0.01
2013-12-2,40.2,35.8,29.8,36.6,32.9,28.0,91,86,82,30.04,29.92,0,0,2,0.00
2013-12-3,46.1,35.1,26.6,37.9,32.4,24.8,92,88,69,29.99,29.87,3,0,5,0.00
2013-12-4,42.7,30.3,22.7,33.4,26.7,20.7,91,84,62,30.20,29.99,2,0,3,0.00
2013-12-5,51.2,37.7,29.9,50.0,35.6,28.1,93,89,83,30.20,29.91,7,0,11,0.11
2013-12-6,54.0,45.6,34.1,52.8,42.4,32.2,93,86,65,30.17,29.86,6,0,10,0.48
2013-12-7,37.7,33.4,27.0,33.4,28.9,23.1,91,81,60,30.48,30.10,15,1,15,0.04
2013-12-8,32.6,29.0,22.6,24.6,21.7,17.6,88,72,51,30.60,30.47,2,0,3,0.00
2013-12-9,34.2,31.0,27.2,32.3,28.1,20.8,91,86,65,30.48,29.92,4,0,9,0.11
2013-12-10,35.1,30.6,19.7,33.2,28.4,16.9,91,89,85,30.03,29.81,0,0,5,0.03
2013-12-11,30.5,24.0,17.6,24.4,19.9,14.9,95,82,71,30.24,30.03,5,0,9,0.00
2013-12-12,24.7,19.3,13.4,20.0,12.2,7.5,86,71,46,30.30,30.08,9,1,15,0.00
2013-12-13,30.2,22.3,12.7,22.3,15.0,8.5,89,70,60,30.39,30.02,5,0,12,0.00
2013-12-14,21.4,14.0,11.7,11.9,7.3,2.2,86,72,60,30.62,30.14,6,1,9,0.39
2013-12-15,31.3,23.9,14.8,27.2,20.3,11.9,88,83,74,30.13,29.52,12,1,16,0.52
2013-12-16,27.1,20.4,10.3,21.0,13.3,5.9,85,71,53,30.22,29.75,8,1,19,0.00
2013-12-17,16.1,8.6,-2.0,12.2,4.9,-6.0,85,82,79,30.27,29.99,8,0,13,0.39
2013-12-18,31.1,20.1,13.0,25.5,16.0,9.3,87,81,71,30.10,29.96,1,0,7,0.00
2013-12-19,40.6,28.2,12.0,30.6,23.4,9.1,90,80,56,30.13,29.97,10,0,13,0.00
2013-12-20,41.3,34.0,26.9,35.3,30.0,24.3,89,83,68,30.11,29.92,2,0,6,0.00
2013-12-21,53.2,42.9,31.4,45.5,38.4,29.3,90,82,67,29.97,29.85,6,0,10,0.00
2013-12-22,63.4,56.0,45.4,58.8,53.4,43.2,93,88,81,29.93,29.66,14,2,21,0.02
2013-12-23,59.0,45.1,37.1,54.7,42.7,30.5,92,88,73,30.14,29.90,11,1,15,0.68
2013-12-24,37.1,32.4,22.8,30.5,21.8,12.3,79,62,47,30.28,30.07,9,1,16,0.00
2013-12-25,24.5,20.4,15.3,12.4,8.2,4.7,70,56,41,30.52,30.28,9,1,18,0.00
2013-12-26,30.2,23.2,16.7,26.4,17.6,9.5,87,76,61,30.48,30.11,2,0,5,0.08
2013-12-27,36.5,25.1,11.8,26.3,19.5,8.6,88,77,54,30.30,30.21,4,0,6,0.00
2013-12-28,45.8,31.5,22.7,32.2,25.5,19.4,88,77,52,30.24,30.01,7,0,7,0.00
2013-12-29,39.3,33.4,26.4,35.7,30.9,24.0,91,88,76,30.04,29.48,10,0,12,1.51
2013-12-30,37.2,29.4,16.6,35.5,22.3,8.9,92,73,50,30.20,29.60,10,1,16,0.00
2013-12-31,25.8,19.8,12.7,18.8,12.2,8.1,84,70,54,30.23,30.03,8,0,14,0.00
2014-1-1,28.6,21.6,14.5,16.3,12.5,9.2,79,65,46,30.38,30.21,7,0,13,0.00
2014-1-2,22.5,15.8,8.4,19.6,11.8,4.3,89,81,72,30.35,29.86,12,2,15,0.25